Location: Bakersfield
(35.3730°N, 119.0180°W)
Time: 04:07:07
(UTC-07:00)

Daily predictions for brighter satellites

Satellite Brightness Start Highest point End
(mag) Time Altitude Azimuth Time Altitude Azimuth Time Altitude Azimuth
Cosmos 2333 Rocket 3.2 00:11:39 10° NNW 00:15:37 41° WNW 00:15:37 41° WNW
COSMOS 2428 4.3 00:15:17 10° NW 00:18:36 26° WNW 00:18:36 26° WNW
H-2A R/B 4.2 00:24:33 24° NNE 00:24:33 24° NNE 00:26:24 10° N
SL-16 R/B 3.5 00:18:05 10° N 00:22:35 33° NE 00:22:35 33° NE
Mayak 1.0 00:29:48 10° N 00:31:30 23° N 00:31:30 23° N
Cosmos 2297 Rocket 3.1 00:38:31 43° NW 00:38:31 43° NW 00:43:03 10° N
Cosmos 2266 Rocket 4.3 00:32:46 10° N 00:38:07 65° N 00:38:07 65° N
Cosmos 2227 Rocket 3.3 00:41:33 38° NW 00:41:33 38° NW 00:46:14 10° N
CZ-4C R/B 3.8 00:40:44 10° NW 00:46:24 36° W 00:46:24 36° W
Cosmos 2237 Rocket 3.5 00:45:51 10° NNW 00:49:16 34° NW 00:49:16 34° NW
COSMOS 2455 4.4 01:13:44 25° WNW 01:14:33 26° NW 01:19:32 10° N
ADEOS Rocket 4.0 01:19:14 10° N 01:23:19 33° NW 01:23:19 33° NW
NOSS 3-1 (C) 4.1 01:27:45 45° NE 01:27:45 45° NE 01:32:09 10° NE
S3M 4.1 01:44:57 69° N 01:44:57 69° N 01:50:23 10° N
USA 229 DEB 4.0 01:44:50 53° WNW 01:45:04 53° NW 01:51:47 10° NNE
USA 229 4.0 01:44:58 53° WNW 01:45:10 54° NW 01:51:53 10° NNE
NOSS 3-1 (A) 3.9 01:47:39 50° ENE 01:47:39 50° ENE 01:52:25 10° NE
Meteor 1-24 Rocket 4.4 01:49:21 49° NW 01:49:21 49° NW 01:53:56 10° N
Resurs 1-4 Rocket 4.0 01:50:57 10° NE 01:54:35 19° E 01:54:35 19° E
USA 267 4.1 01:56:21 10° ENE 02:01:37 37° ESE 02:01:37 37° ESE
Cosmos 2263 Rocket 2.6 02:04:28 60° NE 02:04:28 60° NE 02:09:13 10° NNE
Cosmos 1386 Rocket 4.5 01:57:13 10° N 02:03:17 77° NE 02:03:17 77° NE
DELTA 2 R/B (1) 4.1 02:05:38 55° N 02:05:43 55° N 02:11:14 10° E
Cosmos 1943 4.0 02:01:19 10° N 02:06:47 46° ENE 02:07:24 44° E
SL-16 R/B 4.1 02:02:24 10° NW 02:04:27 19° WNW 02:04:27 19° WNW
MOS 1 Rocket 4.4 02:06:00 10° N 02:10:15 43° NW 02:10:15 43° NW
Cosmos 2285 Rocket 4.2 02:13:14 63° ESE 02:13:14 63° ESE 02:19:30 10° NNE
Meteor 2-13 Rocket 4.4 02:09:19 10° N 02:14:52 75° NNW 02:14:52 75° NNW
GEOS 3 Rocket 4.0 02:14:34 10° NNE 02:19:20 57° NNW 02:19:20 57° NNW
Cosmos 2221 3.4 02:35:33 10° N 02:38:47 47° NNE 02:38:47 47° NNE
Cosmos 1452 Rocket 3.7 02:36:11 10° NNW 02:40:37 62° NW 02:40:37 62° NW
Cosmos 1048 Rocket 4.0 02:46:50 70° NNW 02:46:50 70° NNW 02:51:41 10° NNE
Cosmos 1626 3.6 02:52:30 35° NNE 02:52:30 35° NNE 02:54:46 10° N
SL-24 R/B - RUBIN 2 4.0 02:56:34 71° NW 02:56:34 71° NW 03:01:27 10° NNE
Meteor 2-19 Rocket 4.4 02:51:41 10° N 02:57:47 81° E 02:59:14 55° SSE
Geosat 4.3 02:53:02 10° NE 02:57:58 55° ESE 02:58:17 54° SE
CZ-4B R/B 4.4 03:01:17 10° NW 03:01:17 10° NW 03:01:21 10° NW
NOSS 2-3 (E) 3.7 03:01:40 81° NE 03:01:40 81° NE 03:06:30 10° NNE
SL-16 R/B 2.5 02:59:48 47° SSE 03:01:47 85° ENE 03:08:01 10° NNW
Cosmos 1766 Rocket 3.8 03:04:53 61° E 03:04:53 61° E 03:09:05 10° NNE
Cosmos 2315 Rocket 4.4 03:08:31 43° W 03:09:01 44° W 03:14:57 10° N
ATLAS 2AS CENTAUR R/B 4.1 03:05:41 22° SSE 03:09:30 34° ESE 03:16:31 10° NE
IRS-1C 4.0 03:04:24 10° N 03:09:46 82° WNW 03:10:25 69° SW
Spot 4 Rocket 4.2 03:07:24 10° NNE 03:12:32 67° ESE 03:13:34 53° SSE
CZ-2D R/B 1.9 03:08:07 10° N 03:13:19 73° WNW 03:13:51 66° WSW
Cosmos 921 Rocket 3.4 03:10:25 10° N 03:14:41 59° ENE 03:15:35 47° ESE
SeaSat 1 2.7 03:14:42 26° SE 03:17:26 68° ENE 03:22:21 10° NNW
CBERS-1 4.5 03:16:22 10° N 03:21:12 44° WNW 03:21:34 43° W
AQUA 4.2 03:17:37 10° N 03:22:09 46° WNW 03:22:13 46° WNW
Cosmos 1703 3.3 03:27:17 69° NW 03:27:17 69° NW 03:30:57 10° N
Cosmos 1844 Rocket 2.7 03:27:19 47° S 03:29:00 80° ESE 03:34:42 10° NNE
IRS-1D 3.7 03:24:48 10° N 03:30:04 62° WNW 03:31:09 50° WSW
H-2A R/B 3.4 03:27:03 10° N 03:31:02 36° WNW 03:31:02 36° WNW
Cosmos 1408 Rocket 3.3 03:32:05 71° SW 03:32:23 76° W 03:36:45 10° N
Resurs 1-4 Rocket 2.6 03:29:41 10° N 03:34:41 44° WNW 03:35:40 40° W
Cosmos 1110 Rocket 4.1 03:30:16 10° NNW 03:35:28 75° ENE 03:39:26 17° SSE
ARIANE 5 R/B 2.4 03:30:56 10° N 03:36:00 73° WNW 03:37:16 50° SW
Centaur D-1A AC-35 4.3 03:33:25 34° SW 03:36:15 43° S 04:15:01 10° ESE
Centaur D-1A AC-35 4.3 03:33:25 34° SW 03:36:15 43° S 04:15:00 10° ESE
Cosmos 2278 Rocket 3.9 03:33:12 13° SSE 03:37:11 27° ESE 03:41:50 10° NE
NOSS 2-3 (C) 4.4 03:38:50 36° W 03:39:49 41° NW 03:44:41 10° NNE
Cosmos 494 Rocket 4.1 03:39:14 47° WSW 03:40:26 61° WNW 03:45:36 10° N
UNK 4.4 03:40:54 36° W 03:40:54 36° W 03:44:48 10° NNW
Cosmos 1151 Rocket 4.2 03:37:23 10° N 03:41:32 42° E 03:45:15 12° SSE
UNKNOWN OBJECT B 2.9 03:37:55 10° NNE 03:41:37 64° E 03:42:24 49° SSE
Cosmos 1844 3.7 03:39:31 38° S 03:41:44 77° ESE 03:47:24 10° NNE
SL-08 R/B 4.0 03:44:01 36° W 03:44:01 36° W 03:48:27 10° NNW
Helios 1A Rocket 2.9 03:40:24 10° NNE 03:44:29 76° ESE 03:45:33 48° S
Cosmos 2058 2.8 03:43:48 57° SSW 03:44:35 80° W 03:48:49 10° N
USA 267 3.7 03:39:05 10° NE 03:45:24 54° NW 03:48:58 26° WSW
Cosmos 2263 Rocket 4.1 03:46:09 13° WNW 03:48:02 15° NW 03:51:14 10° NNW
DELTA 2 R/B (1) 3.6 03:46:52 10° WNW 03:52:30 86° NNE 03:58:07 10° ESE
Nadezhda 1 Rocket 4.0 03:49:40 33° SSW 03:52:32 66° W 03:58:47 10° N
CZ-2D R/B 3.5 03:48:13 10° NNE 03:52:41 88° WNW 03:54:21 38° SSW
BREEZE-M DEB (TANK) 4.1 03:49:45 27° SSW 03:53:53 53° SE 03:57:05 10° ENE
Cosmos 1455 2.2 03:50:33 10° NNW 03:54:14 54° W 03:54:26 53° WSW
Meteor 2-2 Rocket 4.5 03:48:50 10° NNW 03:54:20 49° W 03:56:30 33° SW
Cosmos 2074 Rocket 4.1 03:48:31 10° NNW 03:54:32 53° W 03:57:30 29° SSW
ADEOS II 2.5 03:51:09 10° NNE 03:56:22 61° E 04:00:08 19° S
SWAS 4.4 03:53:16 10° NNW 03:57:31 65° WSW 03:59:45 27° S
Cosmos 2184 Rocket 4.2 03:52:52 10° NNW 03:59:01 51° W 04:02:22 26° SSW
Cosmos 2154 Rocket 4.0 03:55:02 10° N 04:01:21 89° WNW 04:07:41 10° S
Timation 1 Rocket 4.3 03:59:06 31° SW 04:02:01 70° WNW 04:07:59 10° NNE
Cosmos 1743 Rocket 3.4 04:01:12 36° SSW 04:02:51 72° W 04:07:10 10° N
Cosmos 1607 3.9 03:57:14 10° NW 04:03:34 64° WSW 04:09:42 10° SSE
OAO 2 Rocket 3.2 04:06:43 24° W 04:09:44 87° S 04:14:40 10° E
COSMOS 2406 3.7 04:04:03 10° NNW 04:09:47 64° ENE 04:15:29 10° SSE
Cosmos 2151 3.4 04:11:39 32° SW 04:13:04 44° W 04:17:12 10° N
BREEZE-M DEB (TANK) 3.4 04:07:09 10° NW 04:16:47 68° SW 04:19:56 10° SE
Cosmos 1331 Rocket 4.2 04:12:26 10° NNW 04:17:22 47° WSW 04:21:37 14° S
ASTRO E2 3.9 04:18:29 24° S 04:19:35 27° SSE 04:23:00 10° ESE
Cosmos 1302 Rocket 4.0 04:16:21 10° NNW 04:21:40 85° WSW 04:26:57 10° SSE
Cosmos 1932 4.3 04:16:05 10° NNW 04:22:19 80° WSW 04:28:28 10° SSE
SAR-Lupe-2 4.5 04:22:32 28° WSW 04:22:55 28° W 04:26:03 10° NW
Cosmos 2251 Rocket 4.0 04:21:54 23° SW 04:24:55 46° WNW 04:30:06 10° N
BREEZE-M DEB (TANK) 4.1 04:19:49 15° WSW 04:25:57 47° NNW 04:29:14 10° NE
CCE 1 Rocket 4.2 04:24:58 25° SW 04:26:22 33° S 04:30:31 10° ESE
SL-24 DEB 4.2 04:21:41 10° S 04:26:28 81° W 04:31:14 10° N
OE (NEXTSAT) 4.3 04:27:49 27° WSW 04:29:35 80° NNW 04:33:06 10° NE
ADEOS 4.1 04:24:53 10° N 04:29:46 41° WNW 04:33:05 19° SW
Lacrosse 5 3.9 04:31:27 10° SSE 04:35:08 20° ESE 04:38:50 10° ENE
Cosmos 1500 Rocket 4.4 04:36:28 19° SW 04:39:02 34° WNW 04:43:05 10° NNW
Cosmos 405 Rocket 2.8 04:39:25 10° NNW 04:43:08 51° W 04:46:45 10° S
CZ-4B R/B 3.5 04:41:21 10° NNE 04:44:51 49° E 04:48:24 10° S
SL-16 R/B 4.2 04:44:53 11° WSW 04:46:00 12° W 04:48:08 10° WNW
SL-19 R/B 4.3 04:44:25 13° SSW 04:46:49 33° WSW 04:49:28 10° NW
Cosmos 2228 Rocket 4.0 04:43:08 10° NNW 04:47:11 31° W 04:51:03 11° SSW
SeaSat 1 4.1 04:54:27 12° WSW 04:55:18 13° WSW 04:57:23 10° WNW
GENESIS II 4.4 04:54:21 10° SSW 04:58:11 69° ESE 05:02:04 10° NE
ATLAS 2AS CENTAUR R/B 3.5 04:53:08 12° SW 05:00:13 52° NW 05:08:07 10° NNE
Cosmos 1666 Rocket 3.7 04:59:26 10° S 05:03:54 84° E 05:08:21 10° N
GP-B 4.0 05:00:06 10° NNW 05:03:58 30° W 05:07:50 10° SW
Cosmos 1633 Rocket 3.4 05:00:36 10° S 05:04:53 69° E 05:09:14 10° NNE
In-Cosmos 22 Rocket 4.3 05:03:27 10° SSW 05:08:49 56° W 05:14:06 10° N
Cosmos 2098 Rocket 4.3 05:04:12 10° NNW 05:10:28 67° W 05:17:44 10° S
Meteor 2-10 Rocket 4.3 05:08:31 10° NNW 05:12:49 29° W 05:17:05 10° SSW
PSLV R/B 4.0 05:09:07 10° N 05:13:11 44° WNW 05:17:15 10° SW
Okean O Rocket 2.1 05:09:47 10° NNE 05:14:08 62° E 05:18:29 10° S
Cosmos 407 Rocket 3.8 05:10:06 10° S 05:15:11 68° ESE 05:20:16 10° NNE
Cosmos 1992 Rocket 4.0 05:10:44 10° NNW 05:15:57 80° WSW 05:21:08 10° SSE
Cosmos 1892 2.9 05:13:39 10° SSW 05:17:27 55° W 05:21:15 10° N
CZ-4B R/B 3.7 05:14:53 10° NNE 05:20:08 62° ESE 05:25:21 10° S
Cosmos 2278 Rocket 3.0 05:15:52 10° SW 05:21:02 36° WNW 05:26:14 10° N
